IRIDIUM 106 1 41917U 17003A 26178.21192372 .00000036 00000+0 58010-5 0 9991 2 41917 86.3959 84.3656 0001968 91.4576 268.6845 14.34217761494644 IRIDIUM 103 1 41918U 17003B 26178.19923882 .00000026 00000+0 23828-5 0 9995 2 41918 86.3957 84.2705 0002024 77.4404 282.7018 14.34217648494660 IRIDIUM 109 1 41919U 17003C 26178.20558153 .00000018 00000+0 -66691-6 0 9991 2 41919 86.3959 84.3275 0002113 82.6171 277.5265 14.34217580494632 IRIDIUM 102 1 41920U 17003D 26178.17386709 .00000107 00000+0 31233-4 0 9995 2 41920 86.3961 84.2643 0002260 85.7294 274.4160 14.34217288494712 IRIDIUM 105 1 41921U 17003E 26178.13246722 -.00000007 00000+0 -94633-5 0 9997 2 41921 86.3953 52.7115 0002336 80.0362 280.1097 14.34217551496567 IRIDIUM 104 1 41922U 17003F 26178.18654698 .00000277 00000+0 91730-4 0 9999 2 41922 86.3961 84.3017 0002377 77.3952 282.7510 14.34215380494708 IRIDIUM 114 1 41923U 17003G 26178.19289650 .00000014 00000+0 -19794-5 0 9994 2 41923 86.3961 84.2821 0002204 80.7371 279.4074 14.34217580494682 IRIDIUM 108 1 41924U 17003H 26178.15141416 .00000136 00000+0 41414-4 0 9995 2 41924 86.3952 52.5932 0002302 85.9222 274.2237 14.34217436496535 IRIDIUM 112 1 41925U 17003J 26178.18021089 .00000087 00000+0 24006-4 0 9995 2 41925 86.3956 84.1289 0002320 83.1931 276.9528 14.34218219494702 IRIDIUM 111 1 41926U 17003K 26178.16752542 .00000077 00000+0 20523-4 0 9998 2 41926 86.3961 84.2052 0002247 83.8116 276.3336 14.34219161494683 IRIDIUM 113 1 42803U 17039A 26177.93818434 .00000017 00000+0 -85918-6 0 9995 2 42803 86.3977 318.1022 0002129 89.9345 270.2095 14.34217698472584 IRIDIUM 123 1 42804U 17039B 26178.18896826 .00000079 00000+0 20996-4 0 9995 2 42804 86.3974 349.4552 0002004 91.0688 269.0737 14.34218103471381 IRIDIUM 120 1 42805U 17039C 26177.93184209 .00000015 00000+0 -17799-5 0 9992 2 42805 86.3967 317.8858 0002166 98.5105 261.6336 14.34217940472570 IRIDIUM 115 1 42806U 17039D 26178.10221819 .00000308 00000+0 85473-4 0 9999 2 42806 86.4503 317.9446 0002039 95.2859 264.8574 14.43281359475691 IRIDIUM 118 1 42807U 17039E 26178.01137675 .00000031 00000+0 40293-5 0 9991 2 42807 86.3973 349.5274 0002220 89.6195 270.5255 14.34217505471355 IRIDIUM 117 1 42808U 17039F 26178.03040370 -.00000017 00000+0 -13166-4 0 9993 2 42808 86.3971 349.4772 0001986 89.8641 270.2782 14.34217331471384 IRIDIUM 126 1 42809U 17039G 26178.19531159 .00000047 00000+0 97017-5 0 9990 2 42809 86.3974 349.4594 0002158 87.5065 272.6378 14.34217407471388 IRIDIUM 124 1 42810U 17039H 26178.03603120 .00000294 00000+0 81424-4 0 9991 2 42810 86.4487 286.2406 0002212 95.0848 265.0605 14.43279756476530 IRIDIUM 128 1 42811U 17039J 26178.11628104 .00000052 00000+0 11386-4 0 9992 2 42811 86.3961 20.9981 0002090 91.7405 268.4030 14.34217856471407 IRIDIUM 121 1 42812U 17039K 26178.00503383 .00000085 00000+0 23188-4 0 9991 2 42812 86.3975 349.5667 0002189 92.4998 267.6448 14.34217956471234 IRIDIUM 133 1 42955U 17061A 26178.07822566 .00000064 00000+0 15740-4 0 9990 2 42955 86.3965 21.1320 0002139 89.0977 271.0463 14.34217939456199 IRIDIUM 100 1 42956U 17061B 26178.07188322 .00000057 00000+0 13154-4 0 9995 2 42956 86.3963 21.0531 0002181 88.6109 271.5336 14.34217671456197 IRIDIUM 122 1 42957U 17061C 26178.10993828 -.00000013 00000+0 -11803-4 0 9998 2 42957 86.3960 21.0373 0002025 85.8820 274.2608 14.34217419456209 IRIDIUM 129 1 42958U 17061D 26178.06554084 .00000104 00000+0 29946-4 0 9997 2 42958 86.3965 21.1231 0002379 83.7100 276.4367 14.34217614456213 IRIDIUM 119 1 42959U 17061E 26178.10359274 -.00000006 00000+0 -90995-5 0 9993 2 42959 86.3960 21.1029 0002065 84.9382 275.2049 14.34216518456239 IRIDIUM 107 1 42960U 17061F 26178.05285123 .00000229 00000+0 74555-4 0 9998 2 42960 86.3964 21.1455 0001912 88.1242 272.0172 14.34219743456234 IRIDIUM 132 1 42961U 17061G 26178.05919814 .00000078 00000+0 20903-4 0 9990 2 42961 86.3963 21.1223 0002145 86.7024 273.4417 14.34217810456238 IRIDIUM 136 1 42962U 17061H 26178.09091377 .00000230 00000+0 75217-4 0 9998 2 42962 86.3965 21.1158 0002216 89.5072 270.6377 14.34219724456253 IRIDIUM 139 1 42963U 17061J 26178.09725303 .00000017 00000+0 -96941-6 0 9995 2 42963 86.3960 21.1750 0002025 90.4045 269.7382 14.34217673456263 IRIDIUM 125 1 42964U 17061K 26178.08458551 .00000233 00000+0 76030-4 0 9997 2 42964 86.3968 21.2418 0001898 75.1381 285.0025 14.34218035456273 IRIDIUM 135 1 43070U 17083A 26177.91915698 .00000028 00000+0 28103-5 0 9992 2 43070 86.3972 317.9460 0002186 92.7195 267.4251 14.34217840445544 IRIDIUM 138 1 43071U 17083B 26178.08406448 .00000054 00000+0 12265-4 0 9990 2 43071 86.3986 317.5740 0002222 87.3095 272.8355 14.34217921445553 IRIDIUM 116 1 43072U 17083C 26177.91281410 .00000131 00000+0 39582-4 0 9999 2 43072 86.3972 317.9346 0002166 101.8018 258.3421 14.34218164445563 IRIDIUM 130 1 43073U 17083D 26178.09040539 .00000086 00000+0 23646-4 0 9998 2 43073 86.3979 318.1365 0002013 96.7778 263.3647 14.34217238445535 IRIDIUM 151 1 43074U 17083E 26178.13480529 .00000006 00000+0 -50162-5 0 9998 2 43074 86.3971 317.8999 0002091 94.3871 265.7564 14.34217522445564 IRIDIUM 134 1 43075U 17083F 26178.10309090 .00000163 00000+0 50973-4 0 9991 2 43075 86.3975 317.9211 0002133 93.9984 266.1455 14.34218770445520 IRIDIUM 137 1 43076U 17083G 26178.11577823 -.00000015 00000+0 -12389-4 0 9991 2 43076 86.3975 318.0091 0002396 102.0285 258.1179 14.34217337445595 IRIDIUM 141 1 43077U 17083H 26178.10943480 .00000028 00000+0 28257-5 0 9991 2 43077 86.3972 317.8415 0002206 91.5644 268.5804 14.34217742445591 IRIDIUM 153 1 43078U 17083J 26177.85230803 .00000008 00000+0 -40871-5 0 9996 2 43078 86.3963 286.4299 0002076 91.0575 269.0859 14.34217501446664 IRIDIUM 131 1 43079U 17083K 26178.09674984 .00000037 00000+0 62785-5 0 9995 2 43079 86.3977 318.0335 0002246 92.2619 267.8834 14.34217605445522 IRIDIUM 144 1 43249U 18030A 26177.99818446 .00000175 00000+0 55495-4 0 9990 2 43249 86.3964 286.2976 0002182 97.9357 262.2086 14.34216907431543 IRIDIUM 149 1 43250U 18030B 26178.00453044 .00000026 00000+0 21043-5 0 9992 2 43250 86.3963 286.2619 0002301 93.8687 266.2772 14.34217759431566 IRIDIUM 157 1 43251U 18030C 26178.23286253 .00000106 00000+0 30654-4 0 9990 2 43251 86.3965 286.2198 0002217 94.7591 265.3858 14.34218480431579 IRIDIUM 140 1 43252U 18030D 26178.04258463 .00000194 00000+0 62342-4 0 9998 2 43252 86.3965 286.3121 0002156 95.3631 264.7811 14.34217832431607 IRIDIUM 145 1 43253U 18030E 26177.82059391 .00000119 00000+0 35518-4 0 9995 2 43253 86.3962 286.3770 0002206 102.8351 257.3091 14.34218509431503 IRIDIUM 146 1 43254U 18030F 26178.22017841 .00000079 00000+0 21322-4 0 9998 2 43254 86.3963 286.2221 0002265 97.7512 262.3941 14.34217896431576 IRIDIUM 148 1 43255U 18030G 26178.04892845 .00000026 00000+0 21391-5 0 9993 2 43255 86.3963 286.3372 0002229 96.0604 264.0846 14.34217770431584 IRIDIUM 142 1 43256U 18030H 26178.22652104 .00000018 00000+0 -51079-6 0 9995 2 43256 86.3960 286.1516 0002171 99.9614 260.1826 14.34217659431579 IRIDIUM 150 1 43257U 18030J 26178.05527036 .00000123 00000+0 36982-4 0 9992 2 43257 86.3965 286.3397 0002155 95.6789 264.4652 14.34218169431573 IRIDIUM 143 1 43258U 18030K 26178.03624292 .00000192 00000+0 61574-4 0 9994 2 43258 86.3968 286.4405 0002218 98.4759 261.6688 14.34218266431505 IRIDIUM 161 1 43478U 18047C 26178.22196316 .00000302 00000+0 83840-4 0 9991 2 43478 86.4479 84.2758 0002517 81.6979 278.4507 14.43277549426589 IRIDIUM 152 1 43479U 18047D 26178.21826595 .00000198 00000+0 63707-4 0 9993 2 43479 86.3956 84.1385 0002281 82.2112 277.9342 14.34218270423920 IRIDIUM 147 1 43480U 18047E 26178.15484088 .00000026 00000+0 20539-5 0 9992 2 43480 86.3957 84.1703 0002164 87.3473 272.7971 14.34217715423916 IRIDIUM 110 1 43481U 18047F 26178.16118410 .00000000 00000+0 -70573-5 0 9993 2 43481 86.3956 84.2597 0002349 78.2051 281.9408 14.34217415423907 IRIDIUM 162 1 43482U 18047G 26178.21566499 .00000315 00000+0 87736-4 0 9990 2 43482 86.4481 84.1693 0002283 83.2922 276.8539 14.43279355426573 IRIDIUM 160 1 43569U 18061A 26178.17678794 .00000052 00000+0 11392-4 0 9992 2 43569 86.3955 52.6201 0002252 85.5215 274.6238 14.34217890414806 IRIDIUM 166 1 43570U 18061B 26178.13238929 .00000019 00000+0 -24052-6 0 9995 2 43570 86.3947 52.5887 0002054 88.3142 271.8289 14.34217652414821 IRIDIUM 158 1 43571U 18061C 26178.17044512 .00000069 00000+0 17512-4 0 9998 2 43571 86.3951 52.5830 0002151 83.9722 276.1719 14.34217550414797 IRIDIUM 165 1 43572U 18061D 26178.19581529 .00000079 00000+0 21199-4 0 9992 2 43572 86.3954 52.6190 0002141 89.4433 270.7008 14.34217578414825 IRIDIUM 155 1 43573U 18061E 26178.15775965 .00000078 00000+0 20782-4 0 9994 2 43573 86.3950 52.5034 0002056 84.8116 275.3315 14.34218056414789 IRIDIUM 154 1 43574U 18061F 26178.20850059 .00000090 00000+0 25182-4 0 9992 2 43574 86.3954 52.6164 0002176 89.1391 271.0054 14.34217966414844 IRIDIUM 163 1 43575U 18061G 26178.18947328 .00000108 00000+0 31458-4 0 9999 2 43575 86.3952 52.5393 0002203 83.5501 276.5945 14.34217909414811 IRIDIUM 156 1 43576U 18061H 26178.16410752 .00000235 00000+0 76711-4 0 9996 2 43576 86.3953 52.5572 0002008 85.7801 274.3624 14.34218984414805 IRIDIUM 164 1 43577U 18061J 26178.14507485 .00000084 00000+0 22884-4 0 9999 2 43577 86.3954 52.6057 0002226 90.1368 270.0083 14.34218092414842 IRIDIUM 159 1 43578U 18061K 26178.18313075 .00000043 00000+0 82091-5 0 9996 2 43578 86.3951 52.5263 0002223 83.9433 276.2016 14.34217694414816 IRIDIUM 180 1 43922U 19002A 26178.18262662 .00000014 00000+0 -19648-5 0 9997 2 43922 86.3972 349.4183 0002131 89.2659 270.8781 14.34217468390426 IRIDIUM 176 1 43923U 19002B 26178.01425396 .00000745 00000+0 11439-3 0 9993 2 43923 86.6093 349.4305 0002413 88.4700 271.6794 14.72226486400697 IRIDIUM 168 1 43924U 19002C 26178.03674228 .00000068 00000+0 17333-4 0 9994 2 43924 86.3976 349.5565 0002234 90.4422 269.7030 14.34216560390384 IRIDIUM 173 1 43925U 19002D 26178.02406176 .00000049 00000+0 10392-4 0 9996 2 43925 86.3972 349.4504 0002159 88.5426 271.6017 14.34217891390364 IRIDIUM 169 1 43926U 19002E 26178.05960507 .00000282 00000+0 85785-4 0 9990 2 43926 86.4218 21.0649 0001677 83.2462 276.8927 14.38607779391649 IRIDIUM 172 1 43927U 19002F 26178.01771799 .00000006 00000+0 -47896-5 0 9997 2 43927 86.3970 349.4610 0002143 89.7636 270.3805 14.34216828390372 IRIDIUM 175 1 43928U 19002G 26178.04922779 .00000300 00000+0 82652-4 0 9991 2 43928 86.4517 286.3984 0003752 153.2213 206.9182 14.43617856400404 IRIDIUM 171 1 43929U 19002H 26178.20799652 .00000012 00000+0 -28370-5 0 9991 2 43929 86.3980 349.6889 0001985 93.9086 266.2337 14.34217573390398 IRIDIUM 170 1 43930U 19002J 26178.02043090 .00000726 00000+0 11128-3 0 9993 2 43930 86.6093 349.4304 0002491 85.9663 274.1839 14.72226967400704 IRIDIUM 167 1 43931U 19002K 26178.20165400 -.00000016 00000+0 -12770-4 0 9993 2 43931 86.3971 349.4067 0001894 97.3783 262.7628 14.34217337390390 IRIDIUM 181 1 56726U 23068S 26178.15921919 .00000295 00000+0 81661-4 0 9997 2 56726 86.4490 52.6216 0002429 87.6357 272.5122 14.43311303163873 IRIDIUM 177 1 56727U 23068T 26177.92210815 .00001038 00000+0 13376-3 0 9991 2 56727 86.1958 324.1675 0002156 88.0021 272.1446 14.80039543167802 IRIDIUM 174 1 56728U 23068U 26178.21199485 .00000801 00000+0 12322-3 0 9991 2 56728 86.6101 349.4985 0002393 80.6291 279.5196 14.72235031167491 IRIDIUM 178 1 56729U 23068V 26178.04632112 .00000771 00000+0 98128-4 0 9997 2 56729 86.6563 21.2355 0003306 75.7906 284.3683 14.80190446167824 IRIDIUM 179 1 56730U 23068W 26178.10865347 .00000783 00000+0 99971-4 0 9994 2 56730 86.6769 30.2223 0002430 87.4022 272.7478 14.80054793167832